Wind_Speed
5 4 4 3 2 1 1 2 4 6 8 9 10 11 12 13 14 13 13 11 10 10 9 8 9 9 8 7 7 6 6 6 6 5 5 4 4 3 4 4 3 3 2 1 1 2 2 2 2
7 6 5 5 3 2 3 3 3 6 7 8 10 11 12 13 13 13 13 11 11 10 9 9 9 8 8 7 6 6 6 5 5 4 4 4 4 4 4 4 3 2 2 2 2 2 3 3 3
8 7 7 6 5 4 3 3 4 5 7 8 9 11 11 12 13 13 12 11 11 11 10 9 8 8 7 7 7 6 5 5 5 4 4 4 4 4 4 4 3 2 2 2 2 2 3 2 2
9 8 7 7 6 5 5 5 6 6 7 8 9 9 10 11 12 13 12 12 11 11 10 9 8 8 7 7 7 6 5 4 4 4 4 4 5 5 4 4 3 3 2 2 2 2 3 2 2
10 9 8 8 7 6 6 6 7 7 7 8 9 9 10 11 12 12 12 11 11 10 10 10 9 8 7 7 6 6 5 4 4 4 4 4 4 4 5 4 2 2 2 3 3 3 3 2 2
12 11 10 9 8 8 8 8 8 8 8 8 8 9 10 12 13 13 12 10 11 10 10 9 8 8 7 6 6 5 5 5 4 4 4 4 4 4 5 3 2 2 3 3 3 3 3 3 3
13 12 11 10 10 9 9 9 9 10 9 8 8 8 10 12 12 13 11 10 11 10 9 8 8 7 7 6 5 5 5 5 4 4 4 4 4 4 4 3 2 3 3 3 3 4 3 3 3
14 13 12 12 11 11 10 10 10 10 9 8 8 9 11 11 12 12 11 10 11 10 8 8 7 6 6 6 6 6 5 6 5 5 4 5 5 5 5 4 3 3 3 4 4 5 5 5 4
15 14 13 13 13 13 12 11 10 10 11 9 8 10 11 11 11 12 11 11 11 10 9 8 7 6 6 6 6 7 6 6 6 5 5 5 4 5 5 4 3 3 4 4 5 5 6 6 6
15 14 12 13 14 14 13 12 12 12 12 11 10 10 10 11 11 11 11 11 10 9 9 8 7 7 6 6 7 8 7 6 6 6 5 5 5 5 5 4 4 5 5 5 5 6 6 6 6
15 14 13 14 14 14 15 14 14 13 12 12 12 12 12 11 11 11 11 11 10 9 9 8 8 7 7 7 8 8 7 6 6 6 6 6 7 6 6 5 6 6 6 6 7 7 7 7 8
16 14 14 14 15 15 15 15 14 14 13 14 14 14 14 13 12 12 11 10 10 9 8 8 8 7 7 8 8 8 8 8 7 7 7 7 8 8 7 7 7 7 7 8 8 8 9 9 10
17 16 15 15 16 16 15 15 15 14 14 15 15 15 14 13 13 12 11 10 9 9 8 7 7 7 7 8 9 9 9 9 7 7 8 8 8 8 8 7 7 8 8 9 9 9 9 10 11
18 17 17 16 17 16 16 16 16 15 15 15 15 15 15 13 13 13 11 10 10 10 9 8 8 8 8 9 9 9 9 9 9 9 9 9 9 10 10 8 8 8 9 10 10 10 10 11 11
20 19 18 18 18 19 18 16 16 17 17 16 15 15 15 13 13 11 11 10 10 10 9 9 9 10 10 10 10 10 10 11 11 11 10 11 11 11 10 10 9 9 10 10 10 10 11 11 12
20 20 18 18 19 20 20 19 18 18 17 16 15 15 14 14 14 13 12 11 10 11 10 10 11 11 11 11 11 11 12 12 13 13 13 13 12 13 12 11 10 10 10 11 11 11 11 12 13
20 20 18 18 20 21 21 19 18 18 16 15 15 15 15 14 14 13 13 12 12 12 13 13 13 12 12 13 13 13 13 14 14 14 14 14 14 14 13 12 12 12 12 12 11 11 12 13 14
20 19 19 19 20 21 21 20 18 18 17 16 15 15 15 14 13 13 14 14 13 13 13 14 14 14 14 14 14 14 14 15 15 15 15 15 15 15 14 14 14 14 14 13 13 13 13 14 15
20 20 20 19 20 21 20 20 18 18 18 17 16 15 14 13 13 13 14 14 14 14 14 14 15 16 15 15 15 15 15 15 15 16 16 16 16 16 15 15 15 15 15 15 15 15 14 15 16
22 21 21 20 21 22 22 21 19 19 19 19 18 17 15 14 14 14 15 15 15 15 15 15 16 16 16 16 16 16 16 16 16 16 16 18 17 17 16 16 16 16 17 17 17 17 16 16 16
22 22 22 22 23 23 23 22 21 20 21 21 20 19 18 17 16 16 17 16 15 15 16 16 16 17 17 17 16 16 16 16 17 17 17 16 17 17 17 16 16 16 17 17 17 17 17 17 17
22 22 23 23 24 24 24 24 22 22 22 22 22 21 20 20 19 18 17 17 17 17 16 17 17 16 16 17 17 17 17 16 17 17 17 17 17 17 17 17 17 17 18 18 18 18 18 19 18
22 23 23 24 26 26 25 25 22 22 22 22 22 22 22 22 21 20 19 18 17 17 17 17 17 16 16 17 17 17 17 17 17 17 17 17 17 17 17 18 18 18 18 19 19 19 20 20 20
24 25 26 27 28 28 25 26 24 21 21 20 21 22 22 21 21 21 20 19 17 17 17 17 17 18 17 17 17 17 17 17 17 16 16 16 17 17 18 18 18 19 19 19 20 20 21 21 21
26 27 28 29 29 27 25 28 25 22 20 20 21 21 21 21 21 20 20 19 18 19 19 19 18 18 17 17 17 17 18 18 18 17 17 16 17 18 18 18 19 19 20 21 21 21 21 21 21
27 28 28 29 28 27 26 27 25 22 21 21 21 21 21 22 21 21 22 20 20 20 20 20 18 18 18 18 18 18 19 19 18 19 19 18 18 19 19 19 19 20 21 21 21 21 21 21 21
27 27 27 29 29 28 27 26 23 22 21 21 22 22 22 23 23 23 22 21 20 20 20 20 19 19 18 18 18 18 19 19 19 19 19 18 18 18 19 20 21 20 21 21 21 21 21 21 21
26 26 27 28 28 28 27 25 23 22 22 22 23 23 24 24 24 23 23 22 21 20 20 20 19 19 19 18 18 18 17 17 18 18 18 17 18 18 20 21 21 21 21 21 21 21 20 21 21
26 26 27 28 28 28 28 25 23 23 23 23 23 24 24 25 25 24 24 23 22 21 21 22 21 21 20 19 19 18 18 18 19 19 18 18 18 19 20 20 21 21 21 21 21 21 20 21 21
27 27 27 28 29 29 29 27 24 23 23 23 23 24 25 25 26 25 24 23 22 22 23 23 23 23 22 21 20 19 19 19 19 19 18 18 19 19 19 20 20 20 21 20 21 21 21 21 22
Wind_Direction
225 224 224 226 223 251 291 343 12 11 12 16 15 16 13 8 5 1 357 356 355 352 352 354 356 2 6 8 10 16 19 20 21 21 16 5 352 334 325 326 330 325 323 320 289 263 256 251 250
233 236 238 244 245 265 290 321 358 2 3 8 9 10 7 3 360 358 356 354 353 351 350 351 351 356 0 3 7 12 16 14 12 12 7 355 344 333 329 318 309 304 279 272 279 267 258 252 250
237 243 246 251 257 266 288 312 331 345 357 360 0 2 2 358 356 354 354 354 353 351 350 348 348 352 356 358 0 1 5 3 359 359 356 346 338 330 328 320 300 283 267 264 279 268 252 243 251
242 248 251 254 263 272 281 301 312 329 337 346 351 352 353 353 348 347 348 349 347 348 348 347 346 346 348 353 353 353 353 351 346 344 346 338 332 332 323 317 299 276 265 268 273 274 255 260 266
245 249 249 255 265 272 281 291 306 316 328 337 341 345 346 345 342 340 341 344 342 343 346 347 346 345 343 345 346 345 345 345 337 329 329 325 322 325 324 318 305 292 272 266 266 273 271 274 267
245 248 250 254 263 270 276 280 294 308 317 327 331 338 338 338 336 335 334 335 336 338 343 346 347 347 344 339 340 339 339 335 322 316 312 311 314 318 318 315 296 279 263 257 261 270 268 271 268
248 250 250 252 260 266 273 278 289 296 308 312 325 335 332 333 333 334 333 331 331 332 337 341 343 345 344 341 339 339 336 326 315 308 301 302 312 313 301 293 289 280 275 269 261 262 258 266 268
249 251 250 254 257 260 271 280 287 295 303 307 320 326 326 330 332 334 332 330 330 331 334 336 337 336 337 337 331 326 323 319 312 306 300 298 303 308 306 289 282 279 277 271 265 257 257 259 264
252 252 254 258 261 260 267 277 285 292 300 303 313 319 321 326 332 335 334 331 329 330 331 333 332 328 325 324 323 316 310 308 304 298 292 294 297 299 297 283 271 266 264 264 264 260 261 259 261
255 255 254 257 261 261 263 272 281 290 297 302 309 312 312 317 322 326 328 331 329 328 328 328 328 326 321 313 313 309 303 299 296 291 283 283 285 288 286 272 265 263 261 263 266 267 266 263 261
255 254 253 254 260 263 265 271 280 287 292 295 300 304 306 310 313 315 319 325 324 323 325 323 317 316 318 316 310 300 296 295 290 284 277 273 274 279 278 269 266 265 264 265 269 269 267 264 264
252 254 253 255 261 265 265 268 275 283 287 290 295 300 302 301 302 305 312 319 321 320 320 320 318 313 311 312 308 298 292 291 290 278 274 272 269 273 273 272 269 267 266 268 271 271 270 268 267
252 252 253 253 258 263 265 268 273 276 283 287 292 297 300 296 292 296 303 309 318 319 315 317 320 316 315 310 304 293 291 286 283 283 274 268 265 269 269 268 271 267 264 266 268 268 269 270 267
252 252 251 253 256 260 264 267 270 274 278 280 284 291 297 297 291 291 297 303 309 315 314 312 314 311 310 309 302 293 292 286 282 279 277 274 269 267 270 271 271 269 263 263 267 266 268 272 270
248 251 252 252 254 257 260 261 265 270 273 277 283 288 290 289 288 288 293 298 306 313 312 310 308 307 302 298 294 290 289 287 282 279 278 278 272 267 269 271 269 271 269 268 268 266 267 272 275
247 250 253 253 254 255 259 261 263 267 272 276 281 284 285 284 283 284 290 294 304 309 306 306 305 302 299 296 291 286 286 283 281 277 273 274 271 268 265 267 263 266 269 271 271 269 268 271 273
246 251 254 255 255 255 260 263 261 265 269 274 278 281 283 282 282 281 289 294 298 301 299 301 300 299 298 295 290 286 284 282 281 279 276 273 269 268 266 265 262 263 266 269 271 271 271 273 274
246 250 253 254 256 257 260 262 261 263 265 268 273 280 282 282 283 281 287 292 293 296 295 294 294 292 294 292 288 287 284 281 281 282 279 272 266 265 265 265 262 263 265 268 271 272 272 273 274
246 247 251 252 256 259 260 260 259 261 265 270 272 276 281 283 282 284 288 294 290 290 292 292 291 294 294 289 287 286 283 281 279 280 274 270 265 263 263 263 263 264 265 267 269 272 273 273 275
248 250 251 253 257 260 260 260 262 262 266 269 270 272 277 278 282 287 291 292 288 289 292 293 292 292 291 287 284 284 281 277 278 278 279 270 264 261 259 260 262 264 265 266 267 269 270 273 275
249 252 252 253 255 260 262 260 260 265 269 269 270 269 271 274 277 280 284 285 285 287 289 291 291 289 288 285 282 282 281 280 277 276 276 272 267 264 263 262 263 265 266 267 268 268 268 269 271
250 252 251 252 255 260 264 266 263 265 269 271 269 268 270 273 275 275 278 280 281 283 286 291 292 289 287 285 283 281 280 278 276 275 274 274 272 267 265 265 265 266 265 265 267 268 268 269 270
252 252 252 253 257 260 264 269 269 267 267 270 268 270 272 272 272 272 275 278 278 278 281 287 292 292 289 285 284 281 279 277 275 274 273 271 269 268 267 266 266 268 268 266 267 269 270 270 271
252 254 255 256 259 262 264 269 272 271 269 271 269 269 272 271 271 271 274 274 277 278 280 282 290 292 291 287 284 282 282 279 278 275 273 270 265 265 266 267 267 267 267 266 267 270 272 272 273
254 256 259 260 261 265 266 267 272 272 271 272 272 272 272 270 269 270 273 275 279 282 284 282 287 290 291 288 285 284 283 281 278 275 274 271 268 265 266 268 268 267 267 267 269 270 271 272 273
256 258 260 263 266 267 266 267 272 272 273 273 273 272 271 271 269 274 274 275 277 281 284 285 284 286 288 287 284 284 283 280 277 278 277 272 268 266 266 268 267 267 268 269 270 271 271 272 273
253 256 260 263 266 268 268 270 272 272 274 274 274 274 274 274 274 275 273 273 277 281 284 284 284 283 284 285 283 282 280 276 276 278 278 273 272 271 268 268 268 268 269 270 270 271 272 273 274
251 254 257 260 265 268 270 272 273 274 273 273 273 273 273 274 275 275 274 277 278 279 281 279 281 282 280 280 281 280 280 279 277 279 278 277 274 271 268 269 270 270 268 269 270 271 273 274 275
250 252 255 258 262 266 270 273 275 275 274 275 274 272 273 273 273 274 274 274 274 275 275 276 277 279 278 277 277 278 277 277 280 277 277 278 276 274 272 270 272 271 270 270 271 272 274 275 275
253 255 257 259 262 265 269 273 274 273 273 274 274 272 273 274 275 275 273 271 269 271 272 273 276 278 278 277 275 274 274 274 276 275 275 276 277 278 276 272 271 269 269 270 271 271 273 275 276
Height
5886 5887 5887 5888 5889 5889 5887 5887 5887 5886 5886 5885 5884 5884 5883 5883 5883 5883 5880 5878 5877 5876 5875 5874 5873 5872 5871 5870 5869 5869 5868 5868 5868 5868 5868 5868 5867 5867 5867 5867 5868 5868 5869 5870 5871 5871 5871 5872 5872
5886 5887 5888 5888 5888 5888 5888 5887 5887 5886 5886 5885 5884 5884 5883 5882 5881 5881 5879 5877 5877 5876 5875 5874 5873 5871 5870 5870 5869 5868 5868 5868 5868 5868 5868 5867 5867 5867 5867 5867 5868 5868 5869 5869 5870 5871 5871 5872 5872
5885 5886 5888 5888 5887 5887 5888 5887 5887 5886 5886 5885 5884 5884 5883 5882 5881 5880 5879 5877 5876 5875 5874 5873 5872 5871 5870 5869 5869 5868 5868 5868 5867 5867 5867 5867 5867 5867 5867 5867 5867 5868 5868 5869 5870 5870 5871 5871 5872
5885 5886 5887 5887 5886 5887 5887 5886 5886 5886 5885 5885 5884 5884 5883 5882 5881 5880 5878 5877 5876 5875 5874 5872 5871 5870 5869 5869 5868 5868 5867 5867 5867 5867 5866 5866 5866 5866 5866 5866 5867 5867 5868 5869 5869 5870 5870 5871 5871
5884 5886 5886 5886 5886 5886 5886 5885 5885 5885 5885 5884 5884 5883 5882 5882 5880 5879 5878 5876 5875 5874 5873 5871 5870 5869 5868 5868 5867 5867 5867 5867 5866 5866 5866 5866 5866 5865 5865 5866 5866 5867 5867 5868 5869 5870 5870 5871 5871
5884 5884 5885 5885 5885 5885 5885 5884 5884 5884 5884 5883 5883 5882 5882 5881 5879 5878 5877 5876 5874 5873 5872 5871 5869 5868 5868 5867 5867 5866 5866 5866 5866 5865 5865 5865 5865 5865 5865 5865 5865 5866 5867 5867 5868 5869 5870 5870 5871
5882 5883 5883 5884 5884 5884 5884 5883 5883 5882 5882 5882 5882 5881 5881 5880 5878 5877 5876 5875 5873 5872 5871 5870 5869 5868 5867 5866 5866 5866 5866 5865 5865 5865 5864 5864 5864 5864 5864 5864 5865 5865 5866 5867 5867 5868 5869 5869 5870
5879 5881 5881 5882 5882 5883 5883 5882 5882 5881 5881 5881 5880 5880 5880 5879 5877 5876 5875 5874 5872 5871 5870 5869 5868 5867 5866 5866 5865 5865 5865 5864 5864 5864 5863 5864 5864 5864 5864 5864 5864 5865 5865 5866 5866 5867 5868 5869 5869
5877 5880 5879 5880 5880 5881 5881 5880 5880 5880 5879 5879 5879 5879 5879 5877 5876 5875 5874 5873 5871 5870 5869 5868 5867 5866 5865 5864 5864 5864 5863 5863 5863 5863 5863 5863 5863 5863 5863 5863 5863 5864 5864 5865 5865 5866 5867 5867 5868
5875 5877 5878 5878 5878 5878 5878 5878 5878 5878 5878 5877 5877 5877 5876 5876 5875 5874 5873 5871 5870 5869 5868 5866 5866 5864 5864 5863 5863 5862 5862 5862 5862 5862 5862 5862 5862 5862 5862 5862 5863 5863 5863 5864 5864 5865 5865 5866 5867
5872 5874 5875 5875 5875 5875 5876 5876 5876 5876 5876 5876 5875 5875 5874 5874 5873 5872 5871 5869 5868 5867 5866 5865 5864 5863 5862 5862 5861 5860 5860 5860 5860 5860 5861 5861 5861 5860 5861 5861 5861 5862 5862 5863 5863 5863 5864 5865 5865
5870 5871 5872 5873 5872 5872 5873 5874 5874 5874 5874 5874 5873 5873 5872 5872 5871 5870 5869 5868 5867 5866 5864 5863 5862 5861 5861 5860 5859 5859 5859 5859 5859 5859 5859 5859 5859 5859 5859 5859 5860 5860 5860 5861 5861 5862 5862 5863 5863
5867 5868 5869 5869 5869 5869 5870 5871 5871 5871 5872 5871 5871 5870 5870 5869 5869 5868 5867 5866 5865 5864 5863 5862 5861 5860 5859 5858 5857 5857 5857 5857 5857 5857 5857 5857 5857 5858 5857 5857 5858 5858 5858 5859 5859 5860 5860 5860 5861
5863 5865 5866 5866 5866 5867 5867 5868 5868 5869 5868 5868 5868 5867 5867 5866 5866 5865 5865 5864 5863 5862 5861 5860 5859 5858 5857 5857 5856 5855 5855 5855 5855 5854 5855 5855 5855 5855 5855 5855 5855 5856 5856 5856 5857 5857 5858 5858 5858
5860 5861 5863 5863 5863 5863 5864 5865 5865 5865 5865 5865 5865 5865 5864 5864 5863 5863 5862 5861 5861 5860 5859 5858 5857 5856 5855 5854 5854 5853 5853 5852 5852 5852 5852 5852 5853 5853 5853 5853 5853 5853 5853 5854 5854 5855 5855 5856 5856
5856 5857 5859 5860 5860 5860 5861 5861 5862 5861 5861 5862 5862 5862 5861 5861 5860 5859 5859 5858 5858 5857 5856 5855 5855 5854 5853 5852 5851 5851 5850 5850 5849 5849 5849 5849 5849 5850 5850 5851 5851 5851 5851 5851 5852 5852 5852 5852 5853
5852 5853 5855 5856 5856 5856 5856 5857 5859 5858 5858 5859 5859 5859 5858 5858 5857 5856 5856 5855 5854 5854 5853 5853 5852 5851 5850 5849 5848 5847 5847 5847 5846 5846 5846 5846 5846 5846 5847 5848 5848 5848 5848 5848 5849 5849 5849 5849 5849
5849 5850 5850 5851 5852 5851 5852 5853 5855 5854 5854 5855 5856 5856 5855 5855 5855 5853 5853 5852 5851 5851 5850 5850 5849 5848 5846 5845 5844 5844 5843 5843 5842 5842 5842 5842 5842 5843 5843 5844 5845 5845 5845 5845 5845 5845 5846 5846 5846
5844 5845 5846 5847 5847 5847 5848 5849 5850 5850 5851 5851 5852 5852 5852 5852 5852 5850 5849 5848 5848 5847 5847 5846 5845 5844 5842 5842 5841 5839 5839 5839 5838 5838 5838 5838 5838 5839 5839 5840 5841 5841 5841 5842 5842 5842 5842 5842 5842
5839 5841 5842 5843 5842 5843 5843 5844 5846 5846 5847 5847 5848 5848 5848 5848 5848 5847 5846 5845 5844 5844 5843 5842 5840 5839 5838 5837 5836 5835 5835 5834 5834 5834 5834 5834 5834 5834 5835 5836 5836 5837 5837 5838 5838 5838 5838 5838 5837
5835 5836 5837 5838 5838 5838 5839 5840 5841 5842 5842 5842 5843 5844 5844 5844 5843 5843 5842 5841 5840 5839 5839 5837 5836 5835 5834 5833 5831 5831 5830 5830 5830 5830 5830 5830 5830 5830 5831 5831 5832 5833 5833 5833 5833 5833 5834 5834 5833
5830 5832 5832 5833 5833 5833 5834 5834 5837 5837 5837 5837 5838 5839 5839 5839 5839 5838 5837 5836 5835 5835 5834 5833 5831 5830 5829 5828 5827 5827 5826 5826 5825 5825 5825 5825 5825 5826 5826 5827 5827 5828 5828 5829 5829 5829 5829 5829 5829
5825 5826 5827 5827 5827 5828 5829 5829 5832 5832 5832 5832 5833 5833 5834 5834 5833 5833 5832 5831 5830 5830 5829 5828 5827 5826 5825 5824 5823 5822 5822 5821 5820 5820 5820 5820 5820 5821 5821 5822 5822 5823 5823 5823 5824 5824 5824 5824 5824
5819 5820 5821 5821 5821 5823 5825 5824 5825 5827 5827 5828 5828 5827 5828 5828 5828 5827 5827 5826 5825 5825 5824 5822 5822 5821 5820 5819 5818 5817 5817 5816 5816 5816 5815 5815 5816 5816 5816 5817 5817 5818 5818 5818 5818 5818 5818 5819 5818
5813 5814 5815 5815 5815 5817 5819 5818 5820 5822 5822 5822 5822 5822 5822 5822 5822 5822 5821 5821 5820 5820 5819 5818 5817 5816 5815 5814 5813 5813 5812 5812 5811 5811 5811 5811 5811 5811 5812 5812 5812 5812 5813 5813 5813 5813 5813 5812 5812
5807 5808 5810 5810 5810 5812 5813 5812 5815 5816 5816 5816 5816 5816 5816 5817 5816 5816 5816 5816 5816 5815 5814 5813 5812 5812 5811 5810 5809 5808 5808 5807 5807 5807 5806 5806 5805 5806 5806 5806 5807 5807 5807 5807 5807 5806 5806 5806 5806
5800 5801 5803 5804 5804 5805 5806 5807 5809 5810 5811 5811 5811 5811 5811 5811 5811 5810 5810 5811 5810 5810 5809 5808 5807 5807 5806 5805 5804 5803 5803 5802 5802 5802 5802 5801 5800 5800 5800 5801 5801 5801 5800 5800 5800 5800 5800 5800 5800
5795 5796 5797 5797 5797 5798 5799 5801 5803 5804 5805 5805 5805 5805 5805 5805 5805 5805 5805 5805 5804 5804 5803 5803 5802 5801 5801 5800 5799 5798 5797 5797 5797 5797 5796 5796 5795 5795 5795 5795 5795 5794 5794 5794 5794 5795 5794 5794 5794
5789 5790 5790 5791 5792 5792 5793 5797 5797 5798 5798 5799 5799 5798 5798 5798 5798 5798 5798 5798 5798 5797 5797 5796 5796 5795 5795 5794 5793 5793 5792 5791 5791 5791 5790 5790 5790 5789 5789 5789 5789 5788 5788 5788 5788 5788 5789 5788 5788
5782 5783 5785 5786 5786 5786 5787 5792 5791 5791 5792 5792 5792 5791 5791 5791 5791 5791 5791 5792 5791 5791 5791 5790 5790 5789 5788 5788 5787 5787 5786 5786 5785 5785 5785 5785 5784 5784 5784 5783 5783 5782 5782 5782 5782 5782 5782 5782 5781